This is the latest recevied weather packets stored in our database for station/object KR4ELZ. If no packets are shown the sender has not sent any weather packets the latest 10 day(s).
| Time | Temp. | Humidity | Pressure | Rain* | Wind** | Luminosity | Snow |
|---|---|---|---|---|---|---|---|
| 1777843864 | 23.89° C | 34% | 1017.2 hPa | 0 mm | - | 326 W/m² | - |
| 1777843561 | 23.33° C | 34% | 1017.1 hPa | 0 mm | - | 337 W/m² | - |
| 1777843259 | 23.89° C | 34% | 1017.2 hPa | 0 mm | - | 352 W/m² | - |
| 1777842956 | 24.44° C | 34% | 1017.3 hPa | 0 mm | - | 367 W/m² | - |
| 1777842651 | 23.89° C | 34% | 1017.3 hPa | 0 mm | - | 379 W/m² | - |
| 1777842348 | 23.89° C | 34% | 1017.4 hPa | 0 mm | - | 389 W/m² | - |
| 1777842044 | 23.33° C | 35% | 1017.5 hPa | 0 mm | - | 406 W/m² | - |
| 1777841741 | 23.89° C | 38% | 1017.4 hPa | 0 mm | - | 418 W/m² | - |
| 1777840529 | 23.89° C | 32% | 1017.9 hPa | 0 mm | - | 469 W/m² | - |
| 1777840226 | 23.33° C | 37% | 1017.9 hPa | 0 mm | - | 481 W/m² | - |
| 1777839923 | 22.78° C | 36% | 1018.1 hPa | 0 mm | - | 492 W/m² | - |
| 1777839621 | 22.22° C | 36% | 1017.9 hPa | 0 mm | - | 506 W/m² | - |
| 1777838107 | 22.78° C | 37% | 1018.6 hPa | 0 mm | - | 555 W/m² | - |
| 1777836587 | 22.22° C | 37% | 1019 hPa | 0 mm | - | 599 W/m² | - |
| 1777835979 | 21.67° C | 38% | 1019.3 hPa | 0 mm | - | 613 W/m² | - |
| 1777832649 | 20.56° C | 37% | 1020.1 hPa | 0 mm | - | 49 W/m² | - |
| 1777831739 | 21.11° C | 39% | 1020.4 hPa | 0 mm | - | 678 W/m² | - |
| 1777829017 | 19.44° C | 40% | 1021.3 hPa | 0 mm | - | 679 W/m² | - |
| 1777828107 | 20° C | 40% | 1021.3 hPa | 0 mm | - | 677 W/m² | - |
| 1777826894 | 21.11° C | 40% | 1021.5 hPa | 0 mm | - | 661 W/m² | - |
| 1777826592 | 20.56° C | 39% | 1021.7 hPa | 0 mm | - | 660 W/m² | - |
| 1777826287 | 20° C | 40% | 1021.4 hPa | 0 mm | - | 653 W/m² | - |
| 1777825986 | 20° C | 42% | 1021.5 hPa | 0 mm | - | 649 W/m² | - |
| 1777825682 | 18.89° C | 44% | 1021.6 hPa | 0 mm | - | 643 W/m² | - |
| 1777825076 | 19.44° C | 40% | 1021.7 hPa | 0 mm | - | 634 W/m² | - |
* Rain latest hour (hover to see other rain measurements)
** Current wind speed in m/s (hover to see current wind gust speed)